Find Starlink 5747

NORAD ID: 55574 Int'l Des: 2023-020 Owner: SPXS Country: US Constellation: starlink operational
LEOCIRCULAR

現在のビュー

3D地球を読み込み中...

About Starlink 5747

Starlink 5747 (NORAD 55574) is a starlink constellation satellite (v1.5) launched Feb 12, 2023 by SPXS of US. It operates in LEO, CIRCULAR orbit with a mass of 305.00 kg.

Starlink 5747について

説明を読み込み中...

次回通過

Passes for default location (London). Set your location on the main map for personalized predictions.

高度履歴

Loading altitude history...

軌道要素

1 55574U 23020F 26171.24853923 .00000251 00000-0 18647-4 0 9994
2 55574 43.0021 149.7762 0001031 298.1789 61.8959 15.27575585184554
Epoch: Jun 20, 2026 • Age: 11 hours

現在のステータス

高度 495.7 km
速度 7.62 km/s
衛星直下点 -43.00°S, 94.21°W
打ち上げ日 Feb 12, 2023
運用期間 3.3 years
タイプ internet

技術仕様

分類 Payload
質量 305.00 kg
乾燥質量 290.00 kg
総質量 305.00 kg
長さ 0.20 m
直径 2.80 m
スパン 9.00 m
形状 Box + pan
製造者 SPXS
バスタイプ Starlink
フェーズステータス In Orbit
所有者/国 SPXS/US

Most Searched